Location: Ladrillo (historical)
(32.8195°N, 117.2231°W)
Time: 19:22:45
(UTC+00:00)

Tiangong - Pass Details

Date: 01 October 2021
Orbit: 382 x 385 km, 41.5° (Epoch: 18 October)

Event Time Altitude Azimuth Distance (km) Brightness Sun altitude
Exits shadow 13:02:05 - 312° (NW) 1,614 3.8 -9.5°
Reaches altitude 10° 13:02:49 10° 320° (NW) 1,397 3.5 -9.3°
Maximum altitude 13:04:58 17° 4° (N) 1,063 3.4 -8.9°
Drops below altitude 10° 13:07:07 10° 47° (NE) 1,395 4.7 -8.4°
Sets 13:09:41 0° 69° (ENE) 2,247 6.5 -7.9°
